Location: Montbazon
(47.2835°N, 0.6999°E)
Time: 06:22:08
(UTC+00:00)

SL-16 R/B - Pass Details

Date: 08 November 2025
Orbit: 840 x 847 km, 71.0° (Epoch: 12 December)

Event Time Altitude Azimuth Distance (km) Brightness Sun altitude
Rises 06:13:00 0° 195° (SSW) 3,392 5.4 -6.9°
Reaches altitude 10° 06:15:27 10° 192° (SSW) 2,462 4.7 -6.5°
Maximum altitude 06:21:02 64° 112° (ESE) 938 2.8 -5.6°
Drops below altitude 10° 06:26:40 10° 32° (NNE) 2,481 4.8 -4.7°
Sets 06:29:08 0° 30° (NNE) 3,420 5.5 -4.3°
